Regional Weather Roundup
Issued by NWS

Home | Current Version | Previous Version | Graphics & Text | Print | Product List | Glossary Off
Versions: 1 2 3 4 5 6 7 8 9 10 11 12 13 14 15 16 17 18 19 20 21 22 23 24 25 26 27 28 29 30 31 32 33 34 35 36 37 38 39 40 41 42 43 44 45 46 47 48 49 50

000
ASUS43 KTOP 260308
RWRKS

WEATHER ROUNDUP FOR KANSAS
NATIONAL WEATHER SERVICE GOODLAND KS
1000 PM CDT SUN JUN 25 2017

NOTE:  "FAIR" INDICATES FEW OR NO CLOUDS BELOW 12,000 FEET WITH NO
SIGNIFICANT WEATHER AND/OR OBSTRUCTIONS TO VISIBILITY.

KSZ001>006-013>018-027>032-041>047-260400-
NORTHWEST KANSAS

CITY           SKY/WX    TMP DP  RH WIND       PRES   REMARKS
GOODLAND       CLEAR     58  58 100 SE8       30.27S
HAYS           CLEAR     56  54  93 E6        30.25R
HILL CITY      CLOUDY    60  58  92 CALM      30.27R
RUSSELL        CLEAR     58  55  90 SE7       30.23R
$$

KSZ061>065-074>080-084>089-260400-
SOUTHWEST KANSAS

CITY           SKY/WX    TMP DP  RH WIND       PRES   REMARKS
DODGE CITY     CLOUDY    66  59  78 E9        30.23R
ELKHART          N/A     61  48  62 E15         N/A
GARDEN CITY    CLOUDY    66  55  67 E9        30.24R
GREAT BEND     CLOUDY    60  56  86 SE8       30.23F
LIBERAL        CLOUDY    63  56  78 E13       30.22R
PRATT          CLEAR     61  54  78 E9        30.24R
$$

KSZ066>073-081>083-090>101-260400-
SOUTHEAST KANSAS

CITY           SKY/WX    TMP DP  RH WIND       PRES   REMARKS
CHANUTE        CLOUDY    68  53  58 NE6       30.22S
COFFEYVILLE    CLOUDY    69  55  60 NE6       30.22R
HUTCHINSON     CLOUDY    61  54  77 E6        30.22F
MEDICINE LODGE   N/A     67  60  78 E6        30.22R
NEWTON         CLOUDY    59  54  83 E6        30.24F
PARSONS        CLOUDY    67  55  65 CALM      30.23S
WICHITA INTL   PTCLDY    63  56  78 E9        30.23R
WICHITA JABRA  CLEAR     60  56  86 E6        30.23S
WICHITA MCCONL CLEAR     63  54  72 E9        30.23S
WINFIELD       CLEAR     65  57  75 NE9       30.22F
$$

KSZ007>012-019>026-033>040-048>060-102>105-260400-
NORTHEAST KANSAS

CITY           SKY/WX    TMP DP  RH WIND       PRES   REMARKS
CONCORDIA      CLEAR     59  54  83 S5        30.24S
EMPORIA        CLOUDY    61  56  83 CALM      30.23S
LAWRENCE       CLEAR     56  55  97 CALM      30.24S
MANHATTAN      PTCLDY    59  57  93 CALM      30.23S
MARYSVILLE     CLEAR     57  52  82 CALM      30.24R
OLATHE IND     CLEAR     57  55  93 CALM      30.24S
OLATHE EXE     CLEAR     60  53  77 NW3       30.24R
SALINA         CLOUDY    65  56  72 SE3       30.24F
TOPEKA BILLARD CLEAR     58  57  97 CALM      30.23S
TOPEKA FORBES  PTCLDY    58  57  97 CALM      30.23F
$$




USA.gov is the U.S. government's official web portal to all federal, state and local government web resources and services.